Location: Kolin
(50.0330°N, 15.2000°E)
Time: 19:59:59
(UTC+01:00)

ISS - Pass Details

Date: 23 November 2019
Orbit: 411 x 421 km, 51.6° (Epoch: 10 December)

Event Time Altitude Azimuth Distance (km) Brightness Sun altitude
Rises 19:13:11 0° 242° (WSW) 2,354 0.9 -29.4°
Reaches altitude 10° 19:15:16 10° 240° (WSW) 1,495 -0.3 -29.8°
Enters shadow 19:15:32 12° 239° (WSW) 1,391 -0.5 -29.8°
